Location: Arthez
(43.0833°N, 0.2500°W)
Time: 02:27:06
(UTC+00:00)

Cosmos 2263 Rocket - Pass Details

Date: 23 October 2021
Orbit: 825 x 847 km, 71.0° (Epoch: 27 November)

Event Time Altitude Azimuth Distance (km) Brightness Sun altitude
Rises 18:49:15 0° 325° (NW) 3,370 5.9 -19.6°
Reaches altitude 10° 18:51:59 10° 314° (NW) 2,432 5.3 -20.1°
Maximum altitude 18:56:39 28° 257° (WSW) 1,498 4.2 -20.9°
Drops below altitude 10° 19:01:18 10° 199° (SSW) 2,421 4.7 -21.8°
Sets 19:04:01 0° 188° (S) 3,352 5.4 -22.3°
